Flag for Germany Weather past 2 weeks in Freising, Bavaria, Germany

Now
31 °F

Snow. Low clouds.


Feels Like: 26 °F
Forecast: 33 / 35 °F
Wind: 6 mph from Southwest

Location: Muenchen Flughafen

Current Time: Jan 26, 2015 at 11:53:26 PM

Latest Report: Jan 26, 2015 at 11:00 PM


Visibility: 1 mi

Pressure: 30.12 "Hg

Humidity: 98%

Dew point: 31 °F

Location of FreisingLocation

Historic Weather in Freising — Graph

°F

Freising temperature yesterday

Maximum temperature yesterday: 34 °F (at 1:00 PM)
Minimum temperature yesterday: 31 °F (at 6:00 AM)
Average temperature yesterday: 32 °F

Past Weeks' High & Low Weather Summary

 TemperatureHumidityPressure
High57 °F (Jan 13, 3:00 PM)100% (Jan 20, 4:00 AM)30.43 "Hg (Jan 20, 4:00 AM)
Low25 °F (Jan 16, 5:00 AM)24% (Jan 13, 2:00 PM)29.72 "Hg (Jan 16, 8:00 PM)
Average34 °F84%30.07 "Hg
* Reported Jan 11 10:00 PM — Jan 26 10:00 PM, Freising, Weather by CustomWeather, © 2014

Note: Actual official high and low records may vary slightly from our data, if they occured in-between our weather recording intervals... More about our weather records

Advertising

Freising weather history for previous 24 hours

 ConditionsComfort  
Time TempWeatherWind HumidityBarometerVisibility
10:00 PM
Jan 26
31 °FLight snow. Low clouds.6 mph98%30.14 "Hg1 mi
9:00 PM31 °FSnow. Overcast.6 mph96%30.17 "Hg2 mi
8:00 PM31 °FLight snow. Overcast.6 mph91%30.20 "Hg3 mi
7:00 PM33 °FOvercast.6 mph74%30.21 "Hg37 mi
6:00 PM33 °FOvercast.6 mph72%30.23 "Hg37 mi
5:00 PM30 °FPartly sunny.1 mph80%30.24 "Hg47 mi
4:00 PM34 °FScattered clouds.2 mph67%30.24 "Hg19 mi
3:00 PM35 °FPassing clouds.3 mph66%30.26 "Hg25 mi
2:00 PM34 °FScattered clouds.2 mph71%30.29 "Hg25 mi
1:00 PM33 °FOvercast.6 mph76%30.32 "Hg28 mi
12:00 PM33 °FOvercast.6 mph75%30.34 "Hg25 mi
11:00 AM32 °FOvercast.3 mph80%30.37 "Hg19 mi
10:00 AM31 °FOvercast.5 mph83%30.37 "Hg12 mi
9:00 AM31 °FOvercast.5 mph88%30.38 "Hg10 mi
8:00 AM31 °FOvercast.5 mph89%30.38 "Hg7 mi
7:00 AM30 °FLight snow. Overcast.5 mph92%30.38 "Hg5 mi
6:00 AM30 °FLight snow. Low clouds.6 mph95%30.38 "Hg3 mi
5:00 AM30 °FLight snow. Overcast.6 mph90%30.38 "Hg4 mi
4:00 AM30 °FLight snow. Overcast.7 mph90%30.39 "Hg4 mi
3:00 AM30 °FLight snow. Low clouds.6 mph93%30.40 "Hg7 mi
2:00 AM30 °FLight snow. Low clouds.7 mph95%30.40 "Hg2 mi
1:00 AM30 °FLight snow. Low clouds.7 mph95%30.40 "Hg2 mi
12:00 AM30 °FLight snow. Low clouds.7 mph97%30.42 "Hg2 mi
11:00 PM
Jan 25
31 °FSnow. Low clouds.7 mph96%30.42 "Hg1 mi
Weather by CustomWeather, © 2014

See weather overviewHow to use our weather pages